Clinton, OK

4:48 AM CDT on August 26, 2016 (GMT -0500)
Clinton Municipal

Weather History for KCLK - January, 2014

Change the Weather History Date:

Tuesday, January 7, 2014

  Actual Average (KCSM) Record (KCSM)
Temperature  
Mean Temperature 32 °F -  
Max Temperature 46 °F 46 °F 77 °F (2006)
Min Temperature 17 °F 27 °F 12 °F (2015)
Degree Days  
Heating Degree Days 34    
Moisture  
Dew Point 12 °F    
Average Humidity 49    
Maximum Humidity 73    
Minimum Humidity 23    
Precipitation  
Precipitation 0.00 in - - ()
Sea Level Pressure  
Sea Level Pressure 30.23 in    
Wind  
Wind Speed 10 mph (South)    
Max Wind Speed 20 mph    
Max Gust Speed 24 mph    
Visibility 10 miles    
Events      
Averages and records for this station are not official NWS values.
T = Trace of Precipitation, MM = Missing Value Source: NWS Daily Summary

Daily Weather History Graph

Daily Weather History Graph

Search for Another Location

Airport or City:

Trip Planner

Search our weather history database for the weather conditions in past years. The results will help you decide how hot, cold, wet, or windy it might be!

Date:

Astronomy

Jan. 07, 2014 Rise Set
Actual Time 7:45 AM CST 5:38 PM CST
Civil Twilight 7:17 AM CST 6:06 PM CST
Nautical Twilight 6:45 AM CST 6:38 PM CST
Astronomical Twilight 6:15 AM CST 7:09 PM CST
Moon 11:50 AM CST (1/7) No Moon Set
Length of Visible Light 10h 49m
Length of Day
9h 53m
Waxing Crescent, 46% of the Moon is Illuminated
Jan 7
Waxing Crescent
Jan 7
First Quarter
Jan 15
Full
Jan 23
Last Quarter
Jan 30
New

Hourly Weather History & Observations

Time (CST) Temp. Windchill Dew Point Humidity Pressure Visibility Wind Dir Wind Speed Gust Speed Precip Events Conditions
12:15 AM 19.4 °F 11.5 °F 8.6 °F 63% 30.41 in 10.0 mi SSE 5.8 mph - N/A   Clear
12:35 AM 19.4 °F 12.8 °F 8.6 °F 63% 30.40 in 10.0 mi South 4.6 mph - N/A   Clear
12:55 AM 21.2 °F 14.9 °F 8.6 °F 58% 30.40 in 10.0 mi South 4.6 mph - N/A   Clear
1:15 AM 21.2 °F 12.6 °F 8.6 °F 58% 30.39 in 10.0 mi South 6.9 mph - N/A   Clear
1:35 AM 21.2 °F 14.9 °F 8.6 °F 58% 30.38 in 10.0 mi South 4.6 mph - N/A   Clear
1:55 AM 21.2 °F 11.7 °F 8.6 °F 58% 30.38 in 10.0 mi South 8.1 mph - N/A   Clear
2:15 AM 19.4 °F 9.5 °F 8.6 °F 63% 30.37 in 10.0 mi South 8.1 mph - N/A   Clear
2:35 AM 19.4 °F 10.4 °F 8.6 °F 63% 30.37 in 10.0 mi South 6.9 mph - N/A   Clear
2:55 AM 19.4 °F 9.5 °F 10.4 °F 68% 30.37 in 10.0 mi South 8.1 mph - N/A   Clear
3:15 AM 19.4 °F 11.5 °F 8.6 °F 63% 30.36 in 10.0 mi South 5.8 mph - N/A   Clear
3:35 AM 19.4 °F 11.5 °F 8.6 °F 63% 30.36 in 10.0 mi South 5.8 mph - N/A   Clear
3:55 AM 19.4 °F 11.5 °F 8.6 °F 63% 30.35 in 10.0 mi South 5.8 mph - N/A   Clear
4:15 AM 19.4 °F 11.5 °F 8.6 °F 63% 30.35 in 10.0 mi South 5.8 mph - N/A   Clear
4:35 AM 19.4 °F 10.4 °F 8.6 °F 63% 30.34 in 10.0 mi South 6.9 mph - N/A   Clear
4:55 AM 17.6 °F 8.2 °F 8.6 °F 68% 30.33 in 10.0 mi South 6.9 mph - N/A   Clear
5:15 AM 19.4 °F 8.6 °F 10.4 °F 68% 30.33 in 10.0 mi South 9.2 mph - N/A   Clear
5:35 AM 17.6 °F 7.3 °F 10.4 °F 73% 30.33 in 10.0 mi South 8.1 mph - N/A   Clear
5:55 AM 17.6 °F 8.2 °F 10.4 °F 73% 30.32 in 10.0 mi South 6.9 mph - N/A   Clear
6:15 AM 17.6 °F 8.2 °F 10.4 °F 73% 30.31 in 10.0 mi South 6.9 mph - N/A   Clear
6:35 AM 19.4 °F 9.5 °F 10.4 °F 68% 30.29 in 10.0 mi South 8.1 mph - N/A   Clear
6:55 AM 19.4 °F 8.6 °F 10.4 °F 68% 30.29 in 10.0 mi South 9.2 mph - N/A   Clear
7:15 AM 19.4 °F 10.4 °F 10.4 °F 68% 30.30 in 10.0 mi SSW 6.9 mph - N/A   Clear
7:35 AM 19.4 °F 7.9 °F 10.4 °F 68% 30.29 in 10.0 mi SSW 10.4 mph - N/A   Clear
7:55 AM 19.4 °F 7.9 °F 10.4 °F 68% 30.31 in 10.0 mi SSW 10.4 mph - N/A   Clear
8:15 AM 21.2 °F 10.9 °F 10.4 °F 63% 30.31 in 10.0 mi SSW 9.2 mph - N/A   Clear
8:35 AM 21.2 °F 11.7 °F 10.4 °F 63% 30.31 in 10.0 mi SSW 8.1 mph - N/A   Clear
8:55 AM 23.0 °F 12.4 °F 12.2 °F 63% 30.30 in 10.0 mi South 10.4 mph - N/A   Clear
9:15 AM 24.8 °F 15.3 °F 12.2 °F 59% 30.30 in 10.0 mi South 9.2 mph - N/A   Clear
9:35 AM 26.6 °F 16.2 °F 12.2 °F 55% 30.30 in 10.0 mi SSW 11.5 mph - N/A   Clear
9:55 AM 28.4 °F 18.5 °F 12.2 °F 51% 30.30 in 10.0 mi SSW 11.5 mph - N/A   Clear
10:15 AM 32.0 °F 21.6 °F 10.4 °F 41% 30.30 in 10.0 mi SSW 15.0 mph - N/A   Clear
10:35 AM 32.0 °F 21.2 °F 10.4 °F 41% 30.28 in 10.0 mi SSW 16.1 mph - N/A   Clear
10:55 AM 33.8 °F 23.9 °F 10.4 °F 38% 30.28 in 10.0 mi SW 15.0 mph - N/A   Clear
11:15 AM 35.6 °F 26.2 °F 10.4 °F 35% 30.27 in 10.0 mi SSW 15.0 mph 18.4 mph N/A   Clear
11:35 AM 37.4 °F 28.2 °F 10.4 °F 33% 30.27 in 10.0 mi SSW 16.1 mph - N/A   Clear
11:55 AM 39.2 °F 30.5 °F 10.4 °F 31% 30.25 in 10.0 mi SSW 16.1 mph 20.7 mph N/A   Clear
12:15 PM 41.0 °F 32.5 °F 8.6 °F 26% 30.23 in 10.0 mi SSW 17.3 mph - N/A   Clear
12:35 PM 42.8 °F 35.1 °F 8.6 °F 25% 30.21 in 10.0 mi SSW 16.1 mph - N/A   Clear
12:55 PM 42.8 °F 35.4 °F 10.4 °F 27% 30.20 in 10.0 mi SSW 15.0 mph - N/A   Clear
1:15 PM 44.6 °F 36.6 °F 10.4 °F 25% 30.18 in 10.0 mi SSW 19.6 mph - N/A   Clear
1:35 PM 44.6 °F 36.9 °F 10.4 °F 25% 30.17 in 10.0 mi SSW 18.4 mph 23.0 mph N/A   Clear
1:55 PM 46.4 °F 39.2 °F 10.4 °F 23% 30.15 in 10.0 mi SSW 18.4 mph 24.2 mph N/A   Clear
2:15 PM 46.4 °F 39.0 °F 10.4 °F 23% 30.15 in 10.0 mi South 19.6 mph - N/A   Clear
2:35 PM 46.4 °F 39.2 °F 10.4 °F 23% 30.14 in 10.0 mi SSW 18.4 mph 24.2 mph N/A   Clear
2:55 PM 44.6 °F 37.2 °F 10.4 °F 25% 30.14 in 10.0 mi SSW 17.3 mph 24.2 mph N/A   Clear
3:15 PM 44.6 °F 37.2 °F 10.4 °F 25% 30.13 in 10.0 mi South 17.3 mph 24.2 mph N/A   Clear
3:35 PM 46.4 °F 39.0 °F 12.2 °F 25% 30.12 in 10.0 mi South 19.6 mph 24.2 mph N/A   Clear
3:55 PM 46.4 °F 39.2 °F 12.2 °F 25% 30.12 in 10.0 mi South 18.4 mph 24.2 mph N/A   Clear
4:15 PM 44.6 °F 36.9 °F 14.0 °F 29% 30.12 in 10.0 mi South 18.4 mph 23.0 mph N/A   Clear
4:35 PM 44.6 °F 36.9 °F 14.0 °F 29% 30.12 in 10.0 mi South 18.4 mph 23.0 mph N/A   Clear
4:55 PM 42.8 °F 35.1 °F 14.0 °F 31% 30.11 in 10.0 mi South 16.1 mph 21.9 mph N/A   Clear
5:15 PM 42.8 °F 34.8 °F 14.0 °F 31% 30.11 in 10.0 mi South 17.3 mph - N/A   Clear
5:35 PM 41.0 °F 33.1 °F 14.0 °F 33% 30.11 in 10.0 mi South 15.0 mph - N/A   Clear
5:55 PM 41.0 °F 33.9 °F 15.8 °F 36% 30.11 in 10.0 mi South 12.7 mph - N/A   Clear
6:15 PM 37.4 °F 29.8 °F 15.8 °F 41% 30.11 in 10.0 mi South 11.5 mph - N/A   Clear
6:35 PM 35.6 °F 28.0 °F 17.6 °F 48% 30.11 in 10.0 mi South 10.4 mph - N/A   Clear
6:55 PM 35.6 °F 28.0 °F 17.6 °F 48% 30.12 in 10.0 mi South 10.4 mph - N/A   Clear
7:15 PM 33.8 °F 26.4 °F 17.6 °F 52% 30.13 in 10.0 mi South 9.2 mph - N/A   Clear
7:35 PM 32.0 °F 24.2 °F 17.6 °F 55% 30.12 in 10.0 mi South 9.2 mph - N/A   Clear
7:55 PM 33.8 °F 25.8 °F 17.6 °F 52% 30.12 in 10.0 mi SSE 10.4 mph - N/A   Clear
8:15 PM 33.8 °F 25.3 °F 17.6 °F 52% 30.11 in 10.0 mi SSE 11.5 mph - N/A   Clear
8:35 PM 33.8 °F 24.8 °F 17.6 °F 52% 30.12 in 10.0 mi South 12.7 mph - N/A   Clear
8:55 PM 33.8 °F 24.8 °F 17.6 °F 52% 30.12 in 10.0 mi South 12.7 mph - N/A   Clear
9:15 PM 33.8 °F 24.8 °F 17.6 °F 52% 30.11 in 10.0 mi South 12.7 mph - N/A   Clear
9:35 PM 33.8 °F 25.3 °F 17.6 °F 52% 30.11 in 10.0 mi South 11.5 mph - N/A   Clear
9:55 PM 33.8 °F 24.8 °F 17.6 °F 52% 30.11 in 10.0 mi South 12.7 mph - N/A   Clear
10:15 PM 33.8 °F 24.3 °F 17.6 °F 52% 30.11 in 10.0 mi South 13.8 mph - N/A   Clear
10:35 PM 33.8 °F 24.8 °F 17.6 °F 52% 30.10 in 10.0 mi South 12.7 mph - N/A   Clear
10:55 PM 33.8 °F 24.3 °F 15.8 °F 48% 30.10 in 10.0 mi South 13.8 mph - N/A   Clear
11:15 PM 35.6 °F 26.2 °F 15.8 °F 44% 30.10 in 10.0 mi South 15.0 mph - N/A   Clear
11:35 PM 33.8 °F 23.5 °F 15.8 °F 48% 30.09 in 10.0 mi South 16.1 mph - N/A   Clear
11:55 PM 33.8 °F 23.5 °F 14.0 °F 44% 30.09 in 10.0 mi South 16.1 mph - N/A   Clear